Location: Unspecified
(48.7971°N, 123.6320°W)
Time: 10:24:10
(UTC-07:00)

Okean 3 - Visible Passes

Search period start: 23 September 2019 00:00
Search period end: 03 October 2019 00:00
Orbit: 577 x 601 km, 82.5° (Epoch: 23 September)

Date Brightness Start Highest point End Pass type
(mag) Time Alt. Az. Time Alt. Az. Time Alt. Az.
23 Sep 3.7 06:12:34 10° S 06:16:45 73° E 06:20:59 10° NNE visible
24 Sep 6.8 04:46:45 10° E 04:48:06 11° E 04:49:26 10° ENE visible
24 Sep 3.4 06:20:28 10° SSW 06:24:40 77° W 06:28:55 10° N visible
25 Sep 6.4 04:53:13 10° ESE 04:55:49 16° E 04:58:27 10° NE visible
25 Sep 3.6 06:28:30 10° SSW 06:32:37 53° WNW 06:36:47 10° N visible
26 Sep 5.9 05:00:17 10° SE 05:03:34 23° E 05:06:54 10° NE visible
26 Sep 4.0 06:36:42 10° SW 06:40:36 37° WNW 06:44:34 10° N visible
27 Sep 5.3 05:07:38 10° SSE 05:11:22 32° E 05:15:09 10° NNE visible
28 Sep 4.5 05:15:11 10° SSE 05:19:12 46° E 05:23:16 10° NNE visible
29 Sep 3.8 05:22:54 10° S 05:27:04 67° E 05:31:18 10° NNE visible
30 Sep 6.6 03:57:36 10° E 03:58:28 11° E 03:59:19 10° ENE visible
30 Sep 3.3 05:30:56 11° S 05:34:59 84° W 05:39:16 10° N visible
01 Oct 6.3 04:03:44 10° ESE 04:06:11 15° E 04:08:38 10° NE visible
01 Oct 3.5 05:39:53 18° SSW 05:42:55 58° WNW 05:47:09 10° N visible
02 Oct 5.8 04:12:06 16° ESE 04:13:55 21° E 04:17:09 10° NE visible
02 Oct 3.9 05:48:41 22° SW 05:50:55 40° WNW 05:54:57 10° N visible
